Regional Weather Roundup
Issued by NWS

Home | Current Version | Previous Version | Graphics & Text | Print | Product List | Glossary On
Versions: 1 2 3 4 5 6 7 8 9 10 11 12 13 14 15 16 17 18 19 20 21 22 23 24 25 26 27 28 29 30 31 32 33 34 35 36 37 38 39 40 41 42 43 44 45 46 47 48 49 50
859
ASUS43 KIND 271509
RWRIN

WEATHER ROUNDUP FOR INDIANA
NATIONAL WEATHER SERVICE INDIANAPOLIS IN
1100 AM EDT TUE SEP 27 2016

NOTE: "FAIR" INDICATES FEW OR NO CLOUDS BELOW 12,000 FEET WITH NO
SIGNIFICANT WEATHER AND/OR OBSTRUCTIONS TO VISIBILITY.

* - STATION DOES NOT REPORT WEATHER SUCH AS PRECIPITATION OR FOG.

+ - STATION NOT QUALITY CONTROLLED BY THE NATIONAL WEATHER SERVICE.
    USE DATA WITH CAUTION...ESPECIALLY DEWPOINT AND RELATIVE
    HUMIDITY OBSERVATIONS.

INZ001>003-010>013-019-020-271600-
NORTHWEST INDIANA

CITY           SKY/WX    TMP DP  RH WIND       PRES   REMARKS
GARY /AIRPORT/ MOSUNNY   63  41  45 W17       29.85S
KNOX *+        SUNNY     61  18  18 SW10      29.87S
LA PORTE +     SUNNY     63  44  51 SW12      29.86S
MICHIGAN CITY+ SUNNY     63  41  45 MISG      29.84S
MONTICELLO +   SUNNY     64  37  36 SW10G16   29.89F
RENSSELAER +   SUNNY     64  39  39 SW12      29.89S
VALPARAISO     SUNNY     61  43  51 SW14      29.86S

$$

LMZ046-743>745-271600-
SOUTHERN LAKE MICHIGAN

STATION/POSITION TIME  TEMP    WIND        PRES    WAVE
                       AIR SEA DIR/SP/G            HT
                 (UTC) (F)     (DEG/KT/KT) (MB)    (FT)
BURNS HARBOR     1400   59     230/ 10/ 14 1011.2S
MICHIGAN CITY    1400   57     200/ 15/ 16   N/A
5NW MICH CITY    1400   60 67  240/ 17/ 21   N/A     4

$$

INZ004-005-014>016-021>024-271600-
NORTH CENTRAL INDIANA

CITY           SKY/WX    TMP DP  RH WIND       PRES   REMARKS
ELKHART        SUNNY    N/A N/A N/A SW14      29.83S
GOSHEN         SUNNY     61  41  47 W13G24    29.84S
LOGANSPORT +   SUNNY     63  43  48 W13G21    29.90F
PERU/GRISSOM   SUNNY     63  44  49 W16       29.88S
ROCHESTER +    SUNNY     64  45  48 W13       29.88S
SOUTH BEND     SUNNY     60  44  55 SW13      29.84S
WARSAW +       SUNNY     61  37  41 W14       29.86F

$$

INZ006>009-017-018-025>027-271600-
NORTHEAST INDIANA

CITY           SKY/WX    TMP DP  RH WIND       PRES   REMARKS
ANGOLA *+        N/A     63  50  63 SW9       29.83S
AUBURN +       SUNNY     61  41  48 SW9G18    29.86S
FORT WAYNE     MOSUNNY   63  42  46 SW16      29.88R
HUNTINGTON +   SUNNY     62  43  49 W9        29.88F
KENDALLVILLE + SUNNY     61  41  47 W17       29.84F

$$

INZ028-029-035-036-043>045-051>053-271600-
WEST CENTRAL INDIANA

CITY           SKY/WX    TMP DP  RH WIND       PRES   REMARKS
CRAWFORDSVL +  SUNNY     62  47  56 SW9       29.94F
GREENCASTLE +  SUNNY     61  52  72 SW5       29.96F
LAFAYETTE      SUNNY     62  49  62 W12       29.91F
TERRE HAUTE    SUNNY     64  47  53 W10       29.96F

$$

INZ030>032-037>040-046>048-054>057-064-065-271600-
CENTRAL INDIANA

CITY           SKY/WX    TMP DP  RH WIND       PRES   REMARKS
ANDERSON       SUNNY     64  46  52 SW9       29.93F
COLUMBUS       SUNNY     64  48  55 W10       29.98F
FISHERS *+     SUNNY     64  52  63 SW7       29.94S
FRANKFORT +    SUNNY     67  46  47 W12       29.94S
INDIANAPOLIS   SUNNY     64  48  56 SW14      29.95S
-EAGLE CREEK   SUNNY     64  46  52 VRB7      29.94S
MARION +       SUNNY     65  43  45 SW8G18    29.91F
MT COMFORT *+  SUNNY     64  46  52 SW12      29.95S
SHELBYVILLE    SUNNY     67  46  47 W10       29.96S
ZIONSVILLE +   SUNNY     64  46  51 W12G18    29.94F

$$

INZ033-034-041-042-049-050-058-059-271600-
EAST CENTRAL INDIANA

CITY           SKY/WX    TMP DP  RH WIND       PRES   REMARKS
MUNCIE         SUNNY     65  45  48 W12       29.91F

$$

INZ060-061-067>069-081>083-085>088-271600-
SOUTHWEST INDIANA

CITY           SKY/WX    TMP DP  RH WIND       PRES   REMARKS
EVANSVILLE     SUNNY     67  50  54 SW6       30.03F
HUNTINGBURG *+   N/A     63  52  67 SW5       30.03S
WASHINGTON +   SUNNY     67  49  53 MISG      30.00S

$$

INZ062-063-066-070>080-084-089>092-271600-
SOUTH CENTRAL AND SOUTHEAST INDIANA

CITY           SKY/WX    TMP DP  RH WIND       PRES   REMARKS
BEDFORD +      SUNNY    N/A N/A N/A SW6       29.99
BLOOMINGTON    SUNNY     65  46  50 W10G18    29.98F
MADISON *+     SUNNY     64  45  48 W7        30.03S
NORTH VERNON + SUNNY     63  55  77 SW7       30.01S
SEYMOUR +      SUNNY     68  46  45 W8        30.00S

$$





USA.gov is the U.S. government's official web portal to all federal, state and local government web resources and services.